Time,TemperatureF,DewpointF,PressureIn,WindDirection,WindDirectionDegrees,WindSpeedMPH,WindSpeedGustMPH,Humidity,HourlyPrecipIn,Conditions,Clouds,dailyrainin,SoftwareType,DateUTC
2013-01-11 00:00:00,40.7,30.6,30.49,NNE,24,3.0,3.0,67,0.00,,---,0.00,VWS V14.01,2013-01-11 05:00:00,
2013-01-11 00:01:00,40.7,30.6,30.49,NE,35,2.0,5.0,67,0.00,,---,0.00,VWS V14.01,2013-01-11 05:01:00,
2013-01-11 00:03:00,40.8,30.7,30.49,NNW,348,4.0,6.0,67,0.00,,---,0.00,VWS V14.01,2013-01-11 05:03:00,
2013-01-11 00:08:00,41.1,31.0,30.49,North,355,4.0,8.0,67,0.00,,---,0.00,VWS V14.01,2013-01-11 05:08:00,
2013-01-11 00:13:00,41.3,31.5,30.49,North,356,2.0,8.0,68,0.00,,---,0.00,VWS V14.01,2013-01-11 05:13:00,
2013-01-11 00:18:00,41.3,31.5,30.49,NW,307,2.0,8.0,68,0.00,,---,0.00,VWS V14.01,2013-01-11 05:18:00,
2013-01-11 00:23:00,41.1,31.7,30.49,NNW,338,2.0,8.0,69,0.00,,---,0.00,VWS V14.01,2013-01-11 05:23:00,
2013-01-11 00:28:00,40.9,31.9,30.49,NE,39,1.0,8.0,70,0.00,,---,0.00,VWS V14.01,2013-01-11 05:28:00,
2013-01-11 00:30:00,40.8,32.1,30.49,NNE,22,2.0,8.0,71,0.00,,---,0.00,VWS V14.01,2013-01-11 05:30:00,
2013-01-11 00:33:00,40.7,32.0,30.49,NNW,338,3.0,5.0,71,0.00,,---,0.00,VWS V14.01,2013-01-11 05:33:00,
2013-01-11 00:38:00,40.7,32.0,30.49,ENE,70,0.0,5.0,71,0.00,,---,0.00,VWS V14.01,2013-01-11 05:38:00,
2013-01-11 00:43:00,40.6,32.3,30.49,NE,36,0.0,5.0,72,0.00,,---,0.00,VWS V14.01,2013-01-11 05:43:00,
2013-01-11 00:48:00,40.7,32.4,30.49,WNW,297,2.0,5.0,72,0.00,,---,0.00,VWS V14.01,2013-01-11 05:48:00,
2013-01-11 00:53:00,40.6,32.3,30.49,NW,324,0.0,5.0,72,0.00,,---,0.00,VWS V14.01,2013-01-11 05:53:00,
2013-01-11 00:58:00,40.6,32.3,30.49,NNW,346,1.0,5.0,72,0.00,,---,0.00,VWS V14.01,2013-01-11 05:58:00,
2013-01-11 01:00:00,40.5,32.2,30.49,NNW,338,1.0,5.0,72,0.00,,---,0.00,VWS V14.01,2013-01-11 06:00:00,
2013-01-11 01:03:00,40.5,32.2,30.49,North,351,1.0,3.0,72,0.00,,---,0.00,VWS V14.01,2013-01-11 06:03:00,
2013-01-11 01:08:00,40.4,32.4,30.48,ENE,57,0.0,3.0,73,0.00,,---,0.00,VWS V14.01,2013-01-11 06:08:00,
2013-01-11 01:13:00,40.3,32.3,30.48,NNE,18,1.0,3.0,73,0.00,,---,0.00,VWS V14.01,2013-01-11 06:13:00,
2013-01-11 01:18:00,40.2,32.2,30.48,WNW,288,0.0,3.0,73,0.00,,---,0.00,VWS V14.01,2013-01-11 06:18:00,
2013-01-11 01:23:00,40.1,32.5,30.48,ENE,73,0.0,3.0,74,0.00,,---,0.00,VWS V14.01,2013-01-11 06:23:00,
2013-01-11 01:28:00,40.1,32.5,30.48,NNW,339,1.0,3.0,74,0.00,,---,0.00,VWS V14.01,2013-01-11 06:28:00,
2013-01-11 01:30:00,40.2,32.9,30.48,North,0,1.0,3.0,75,0.00,,---,0.00,VWS V14.01,2013-01-11 06:30:00,
2013-01-11 01:33:00,40.1,32.5,30.47,NNE,23,0.0,3.0,74,0.00,,---,0.00,VWS V14.01,2013-01-11 06:33:00,
2013-01-11 01:38:00,40.1,32.8,30.48,NE,34,1.0,4.0,75,0.00,,---,0.00,VWS V14.01,2013-01-11 06:38:00,
2013-01-11 01:43:00,40.1,32.8,30.48,NNE,13,0.0,4.0,75,0.00,,---,0.00,VWS V14.01,2013-01-11 06:43:00,
2013-01-11 01:48:00,40.0,33.1,30.48,NNE,29,2.0,4.0,76,0.00,,---,0.00,VWS V14.01,2013-01-11 06:48:00,
2013-01-11 01:53:00,39.9,33.3,30.48,NNW,346,2.0,4.0,77,0.00,,---,0.00,VWS V14.01,2013-01-11 06:53:00,
2013-01-11 01:58:00,40.0,33.4,30.48,NW,320,0.0,5.0,77,0.00,,---,0.00,VWS V14.01,2013-01-11 06:58:00,
2013-01-11 02:00:00,39.9,33.3,30.48,North,0,1.0,5.0,77,0.00,,---,0.00,VWS V14.01,2013-01-11 07:00:00,
2013-01-11 02:03:00,39.9,33.3,30.48,North,350,0.0,2.0,77,0.00,,---,0.00,VWS V14.01,2013-01-11 07:03:00,
2013-01-11 02:08:00,39.6,33.0,30.48,NNW,335,1.0,2.0,77,0.00,,---,0.00,VWS V14.01,2013-01-11 07:08:00,
2013-01-11 02:13:00,39.5,33.2,30.48,WNW,284,1.0,3.0,78,0.00,,---,0.00,VWS V14.01,2013-01-11 07:13:00,
2013-01-11 02:18:00,39.3,33.0,30.48,North,11,0.0,3.0,78,0.00,,---,0.00,VWS V14.01,2013-01-11 07:18:00,
2013-01-11 02:23:00,39.3,33.7,30.48,NNE,26,0.0,3.0,80,0.00,,---,0.00,VWS V14.01,2013-01-11 07:23:00,
2013-01-11 02:28:00,39.4,34.1,30.47,NNW,342,1.0,4.0,81,0.00,,---,0.00,VWS V14.01,2013-01-11 07:28:00,
2013-01-11 02:30:00,39.5,34.5,30.47,NNE,22,1.0,5.0,82,0.00,,---,0.00,VWS V14.01,2013-01-11 07:30:00,
2013-01-11 02:33:00,39.6,34.9,30.47,NNE,25,3.0,4.0,83,0.00,,---,0.00,VWS V14.01,2013-01-11 07:33:00,
2013-01-11 02:38:00,40.0,35.6,30.47,NE,56,1.0,5.0,84,0.00,,---,0.00,VWS V14.01,2013-01-11 07:38:00,
2013-01-11 02:43:00,40.3,36.5,30.47,NE,35,3.0,6.0,86,0.00,,---,0.00,VWS V14.01,2013-01-11 07:43:00,
2013-01-11 02:48:00,40.4,36.5,30.48,NE,34,0.0,6.0,86,0.00,,---,0.00,VWS V14.01,2013-01-11 07:48:00,
2013-01-11 02:53:00,40.3,36.5,30.48,ENE,64,1.0,6.0,86,0.00,,---,0.00,VWS V14.01,2013-01-11 07:53:00,
2013-01-11 02:58:00,41.2,37.6,30.47,NE,47,6.0,7.0,87,0.00,,---,0.00,VWS V14.01,2013-01-11 07:58:00,
2013-01-11 03:00:00,41.5,37.6,30.47,NE,45,2.0,7.0,86,0.00,,---,0.00,VWS V14.01,2013-01-11 08:00:00,
2013-01-11 03:03:00,42.0,37.8,30.47,NE,54,7.0,7.0,85,0.00,,---,0.00,VWS V14.01,2013-01-11 08:03:00,
2013-01-11 03:08:00,42.4,37.9,30.48,NE,52,6.0,8.0,84,0.00,,---,0.00,VWS V14.01,2013-01-11 08:08:00,
2013-01-11 03:13:00,42.7,37.9,30.48,NE,53,5.0,8.0,83,0.00,,---,0.00,VWS V14.01,2013-01-11 08:13:00,
2013-01-11 03:18:00,42.7,37.6,30.48,NE,53,7.0,9.0,82,0.00,,---,0.00,VWS V14.01,2013-01-11 08:18:00,
2013-01-11 03:23:00,42.8,37.4,30.47,NE,56,8.0,9.0,81,0.00,,---,0.00,VWS V14.01,2013-01-11 08:23:00,
2013-01-11 03:28:00,42.8,37.1,30.47,NE,53,7.0,9.0,80,0.00,,---,0.00,VWS V14.01,2013-01-11 08:28:00,
2013-01-11 03:30:00,42.8,37.4,30.47,NE,45,7.0,10.0,81,0.00,,---,0.00,VWS V14.01,2013-01-11 08:30:00,
2013-01-11 03:33:00,42.8,37.4,30.47,NE,47,7.0,10.0,81,0.00,,---,0.00,VWS V14.01,2013-01-11 08:33:00,
2013-01-11 03:38:00,42.8,37.7,30.46,NE,50,7.0,10.0,82,0.00,,---,0.00,VWS V14.01,2013-01-11 08:38:00,
2013-01-11 03:43:00,42.7,37.3,30.46,NE,56,7.0,10.0,81,0.00,,---,0.00,VWS V14.01,2013-01-11 08:43:00,
2013-01-11 03:48:00,42.9,37.2,30.46,ENE,60,7.0,10.0,80,0.00,,---,0.00,VWS V14.01,2013-01-11 08:48:00,
2013-01-11 03:53:00,42.9,37.5,30.45,NE,55,8.0,10.0,81,0.00,,---,0.00,VWS V14.01,2013-01-11 08:53:00,
2013-01-11 03:58:00,42.8,37.7,30.45,NE,45,6.0,10.0,82,0.00,,---,0.00,VWS V14.01,2013-01-11 08:58:00,
2013-01-11 04:00:00,42.8,37.7,30.45,NE,45,7.0,10.0,82,0.00,,---,0.00,VWS V14.01,2013-01-11 09:00:00,
2013-01-11 04:03:00,42.7,37.6,30.44,NE,52,6.0,8.0,82,0.00,,---,0.00,VWS V14.01,2013-01-11 09:03:00,
2013-01-11 04:08:00,42.7,37.9,30.44,NE,49,9.0,9.0,83,0.00,,---,0.00,VWS V14.01,2013-01-11 09:08:00,
2013-01-11 04:13:00,42.7,37.9,30.44,ENE,68,5.0,9.0,83,0.00,,---,0.00,VWS V14.01,2013-01-11 09:13:00,
2013-01-11 04:18:00,42.6,38.1,30.44,NE,43,4.0,9.0,84,0.00,,---,0.00,VWS V14.01,2013-01-11 09:18:00,
2013-01-11 04:23:00,42.6,38.1,30.44,NE,34,6.0,9.0,84,0.00,,---,0.00,VWS V14.01,2013-01-11 09:23:00,
2013-01-11 04:28:00,42.6,38.1,30.44,ENE,60,5.0,9.0,84,0.00,,---,0.00,VWS V14.01,2013-01-11 09:28:00,
2013-01-11 04:30:00,42.6,38.1,30.45,NE,45,6.0,9.0,84,0.00,,---,0.00,VWS V14.01,2013-01-11 09:30:00,
2013-01-11 04:33:00,42.7,38.2,30.45,NE,50,4.0,5.0,84,0.00,,---,0.00,VWS V14.01,2013-01-11 09:33:00,
2013-01-11 04:38:00,42.6,38.1,30.45,NE,51,2.0,5.0,84,0.00,,---,0.00,VWS V14.01,2013-01-11 09:38:00,
2013-01-11 04:43:00,42.6,38.1,30.45,East,81,2.0,5.0,84,0.00,,---,0.00,VWS V14.01,2013-01-11 09:43:00,
2013-01-11 04:48:00,42.5,38.0,30.45,ENE,60,1.0,5.0,84,0.00,,---,0.00,VWS V14.01,2013-01-11 09:48:00,
2013-01-11 04:53:00,42.5,38.0,30.45,NE,53,3.0,5.0,84,0.00,,---,0.00,VWS V14.01,2013-01-11 09:53:00,
2013-01-11 04:58:00,42.6,38.1,30.46,NE,54,2.0,5.0,84,0.00,,---,0.00,VWS V14.01,2013-01-11 09:58:00,
2013-01-11 05:00:00,42.6,38.1,30.45,NE,45,3.0,5.0,84,0.00,,---,0.00,VWS V14.01,2013-01-11 10:00:00,
2013-01-11 05:03:00,42.6,38.1,30.45,ENE,63,2.0,3.0,84,0.00,,---,0.00,VWS V14.01,2013-01-11 10:03:00,
2013-01-11 05:08:00,42.5,38.0,30.46,ENE,60,1.0,3.0,84,0.00,,---,0.00,VWS V14.01,2013-01-11 10:08:00,
2013-01-11 05:13:00,42.4,37.9,30.45,ENE,62,0.0,3.0,84,0.00,,---,0.00,VWS V14.01,2013-01-11 10:13:00,
2013-01-11 05:18:00,42.4,38.2,30.45,ENE,57,3.0,4.0,85,0.00,,---,0.00,VWS V14.01,2013-01-11 10:18:00,
2013-01-11 05:23:00,42.3,38.1,30.45,ENE,59,1.0,4.0,85,0.00,,---,0.00,VWS V14.01,2013-01-11 10:23:00,
2013-01-11 05:28:00,42.1,38.2,30.45,East,94,2.0,4.0,86,0.00,,---,0.00,VWS V14.01,2013-01-11 10:28:00,
2013-01-11 05:30:00,42.0,38.1,30.45,ENE,68,2.0,4.0,86,0.00,,---,0.00,VWS V14.01,2013-01-11 10:30:00,
2013-01-11 05:33:00,42.0,38.4,30.44,ENE,60,4.0,5.0,87,0.00,,---,0.00,VWS V14.01,2013-01-11 10:33:00,
2013-01-11 05:38:00,41.8,38.2,30.44,ENE,72,1.0,6.0,87,0.00,,---,0.00,VWS V14.01,2013-01-11 10:38:00,
2013-01-11 05:43:00,41.7,38.4,30.44,ENE,58,5.0,6.0,88,0.00,,---,0.00,VWS V14.01,2013-01-11 10:43:00,
2013-01-11 05:48:00,41.7,38.4,30.43,NNW,342,2.0,6.0,88,0.00,,---,0.00,VWS V14.01,2013-01-11 10:48:00,
2013-01-11 05:53:00,41.6,38.3,30.44,ENE,68,4.0,6.0,88,0.00,,---,0.00,VWS V14.01,2013-01-11 10:53:00,
2013-01-11 05:58:00,41.7,38.4,30.44,NE,49,4.0,6.0,88,0.00,,---,0.00,VWS V14.01,2013-01-11 10:58:00,
2013-01-11 06:00:00,41.8,38.5,30.44,ENE,68,3.0,6.0,88,0.00,,---,0.00,VWS V14.01,2013-01-11 11:00:00,
2013-01-11 06:03:00,41.8,38.2,30.44,NE,55,3.0,5.0,87,0.00,,---,0.00,VWS V14.01,2013-01-11 11:03:00,
2013-01-11 06:08:00,41.8,38.2,30.43,ENE,70,5.0,5.0,87,0.00,,---,0.00,VWS V14.01,2013-01-11 11:08:00,
2013-01-11 06:13:00,41.9,38.3,30.44,NE,52,1.0,5.0,87,0.00,,---,0.00,VWS V14.01,2013-01-11 11:13:00,
2013-01-11 06:18:00,41.8,38.2,30.44,ENE,70,0.0,5.0,87,0.00,,---,0.00,VWS V14.01,2013-01-11 11:18:00,
2013-01-11 06:23:00,41.7,38.1,30.44,NE,56,1.0,5.0,87,0.00,,---,0.00,VWS V14.01,2013-01-11 11:23:00,
2013-01-11 06:28:00,41.8,38.2,30.44,NE,34,2.0,5.0,87,0.00,,---,0.00,VWS V14.01,2013-01-11 11:28:00,
2013-01-11 06:30:00,41.8,38.2,30.44,NE,45,2.0,5.0,87,0.00,,---,0.00,VWS V14.01,2013-01-11 11:30:00,
2013-01-11 06:33:00,41.9,38.3,30.45,NNE,33,2.0,4.0,87,0.00,,---,0.00,VWS V14.01,2013-01-11 11:33:00,
2013-01-11 06:38:00,42.0,38.4,30.45,North,354,0.0,4.0,87,0.00,,---,0.00,VWS V14.01,2013-01-11 11:38:00,
2013-01-11 06:43:00,42.0,38.1,30.45,NNE,17,0.0,4.0,86,0.00,,---,0.00,VWS V14.01,2013-01-11 11:43:00,
2013-01-11 06:48:00,42.0,37.8,30.45,NNE,22,0.0,4.0,85,0.00,,---,0.00,VWS V14.01,2013-01-11 11:48:00,
2013-01-11 06:53:00,42.0,37.8,30.44,North,9,2.0,4.0,85,0.00,,---,0.00,VWS V14.01,2013-01-11 11:53:00,
2013-01-11 06:58:00,42.0,37.5,30.45,NNW,328,0.0,4.0,84,0.00,,---,0.00,VWS V14.01,2013-01-11 11:58:00,
2013-01-11 07:00:00,42.0,37.5,30.46,NNE,22,1.0,4.0,84,0.00,,---,0.00,VWS V14.01,2013-01-11 12:00:00,
2013-01-11 07:03:00,42.0,37.5,30.46,NE,51,0.0,2.0,84,0.00,,---,0.00,VWS V14.01,2013-01-11 12:03:00,
2013-01-11 07:08:00,42.0,37.5,30.45,NNE,21,0.0,2.0,84,0.00,,---,0.00,VWS V14.01,2013-01-11 12:08:00,
2013-01-11 07:13:00,42.0,37.2,30.45,NNE,17,2.0,3.0,83,0.00,,---,0.00,VWS V14.01,2013-01-11 12:13:00,
2013-01-11 07:18:00,42.0,37.5,30.45,NE,34,1.0,3.0,84,0.00,,---,0.00,VWS V14.01,2013-01-11 12:18:00,
2013-01-11 07:23:00,42.0,37.5,30.45,NNE,30,1.0,3.0,84,0.00,,---,0.00,VWS V14.01,2013-01-11 12:23:00,
2013-01-11 07:28:00,42.0,37.5,30.45,NNE,21,0.0,3.0,84,0.00,,---,0.00,VWS V14.01,2013-01-11 12:28:00,
2013-01-11 07:30:00,42.0,37.5,30.45,NNE,22,1.0,3.0,84,0.00,,---,0.00,VWS V14.01,2013-01-11 12:30:00,
2013-01-11 07:33:00,42.0,37.5,30.45,NNE,16,0.0,0.0,84,0.00,,---,0.00,VWS V14.01,2013-01-11 12:33:00,
2013-01-11 07:38:00,41.9,37.7,30.45,NNE,25,0.0,2.0,85,0.00,,---,0.00,VWS V14.01,2013-01-11 12:38:00,
2013-01-11 07:43:00,41.6,37.7,30.44,WNW,293,0.0,2.0,86,0.00,,---,0.00,VWS V14.01,2013-01-11 12:43:00,
2013-01-11 07:48:00,41.3,37.7,30.44,North,8,0.0,2.0,87,0.00,,---,0.00,VWS V14.01,2013-01-11 12:48:00,
2013-01-11 07:53:00,41.2,37.9,30.44,North,2,0.0,2.0,88,0.00,,---,0.00,VWS V14.01,2013-01-11 12:53:00,
2013-01-11 07:58:00,41.2,37.9,30.43,NE,45,0.0,2.0,88,0.00,,---,0.00,VWS V14.01,2013-01-11 12:58:00,
2013-01-11 08:00:00,41.2,37.9,30.43,NNW,338,0.0,3.0,88,0.00,,---,0.00,VWS V14.01,2013-01-11 13:00:00,
2013-01-11 08:03:00,41.2,37.9,30.42,ENE,65,2.0,3.0,88,0.00,,---,0.00,VWS V14.01,2013-01-11 13:03:00,
2013-01-11 08:08:00,41.1,38.1,30.42,NE,37,2.0,4.0,89,0.00,,---,0.00,VWS V14.01,2013-01-11 13:08:00,
2013-01-11 08:13:00,41.1,38.4,30.42,NE,34,1.0,5.0,90,0.00,,---,0.00,VWS V14.01,2013-01-11 13:13:00,
2013-01-11 08:18:00,41.1,38.4,30.41,NE,35,1.0,5.0,90,0.00,,---,0.00,VWS V14.01,2013-01-11 13:18:00,
2013-01-11 08:23:00,41.6,38.6,30.42,NNE,32,4.0,5.0,89,0.00,,---,0.00,VWS V14.01,2013-01-11 13:23:00,
2013-01-11 08:28:00,42.0,38.7,30.42,NE,38,2.0,5.0,88,0.00,,---,0.00,VWS V14.01,2013-01-11 13:28:00,
2013-01-11 08:30:00,42.2,38.9,30.42,NE,45,2.0,5.0,88,0.00,,---,0.00,VWS V14.01,2013-01-11 13:30:00,
2013-01-11 08:33:00,42.3,39.0,30.42,NE,38,2.0,4.0,88,0.00,,---,0.00,VWS V14.01,2013-01-11 13:33:00,
2013-01-11 08:38:00,42.4,39.1,30.42,ENE,57,4.0,4.0,88,0.00,,---,0.00,VWS V14.01,2013-01-11 13:38:00,
2013-01-11 08:43:00,42.5,38.9,30.42,NNE,27,2.0,4.0,87,0.00,,---,0.00,VWS V14.01,2013-01-11 13:43:00,
2013-01-11 08:48:00,42.8,39.2,30.43,NE,46,3.0,4.0,87,0.00,,---,0.00,VWS V14.01,2013-01-11 13:48:00,
2013-01-11 08:53:00,43.2,39.3,30.43,NNE,28,1.0,4.0,86,0.00,,---,0.00,VWS V14.01,2013-01-11 13:53:00,
2013-01-11 08:58:00,43.6,39.1,30.43,WNW,303,0.0,4.0,84,0.00,,---,0.00,VWS V14.01,2013-01-11 13:58:00,
2013-01-11 09:00:00,43.7,38.9,30.43,NNE,22,1.0,4.0,83,0.00,,---,0.00,VWS V14.01,2013-01-11 14:00:00,
2013-01-11 09:03:00,44.0,38.5,30.42,North,354,2.0,4.0,81,0.00,,---,0.00,VWS V14.01,2013-01-11 14:03:00,
2013-01-11 09:08:00,44.3,38.8,30.42,NNE,18,3.0,5.0,81,0.00,,---,0.00,VWS V14.01,2013-01-11 14:08:00,
2013-01-11 09:13:00,44.3,39.2,30.42,NNW,343,1.0,5.0,82,0.00,,---,0.00,VWS V14.01,2013-01-11 14:13:00,
2013-01-11 09:18:00,44.4,38.6,30.42,NNE,19,3.0,5.0,80,0.00,,---,0.00,VWS V14.01,2013-01-11 14:18:00,
2013-01-11 09:23:00,44.7,38.9,30.42,North,7,3.0,5.0,80,0.00,,---,0.00,VWS V14.01,2013-01-11 14:23:00,
2013-01-11 09:28:00,45.1,39.0,30.41,NE,49,5.0,6.0,79,0.00,,---,0.00,VWS V14.01,2013-01-11 14:28:00,
2013-01-11 09:30:00,45.2,38.8,30.41,NNE,22,2.0,6.0,78,0.00,,---,0.00,VWS V14.01,2013-01-11 14:30:00,
2013-01-11 09:33:00,45.4,39.0,30.42,North,359,2.0,6.0,78,0.00,,---,0.00,VWS V14.01,2013-01-11 14:33:00,
2013-01-11 09:38:00,45.4,38.3,30.42,NE,38,1.0,6.0,76,0.00,,---,0.00,VWS V14.01,2013-01-11 14:38:00,
2013-01-11 09:43:00,45.5,38.0,30.42,NE,43,1.0,6.0,75,0.00,,---,0.00,VWS V14.01,2013-01-11 14:43:00,
2013-01-11 09:48:00,45.7,38.6,30.43,WSW,252,0.0,6.0,76,0.00,,---,0.00,VWS V14.01,2013-01-11 14:48:00,
2013-01-11 09:53:00,46.0,38.9,30.43,WNW,291,1.0,6.0,76,0.00,,---,0.00,VWS V14.01,2013-01-11 14:53:00,
2013-01-11 09:58:00,46.1,39.6,30.43,NW,317,0.0,6.0,78,0.00,,---,0.00,VWS V14.01,2013-01-11 14:58:00,
2013-01-11 10:00:00,46.1,39.6,30.43,NNE,22,1.0,6.0,78,0.00,,---,0.00,VWS V14.01,2013-01-11 15:00:00,
2013-01-11 10:03:00,46.0,39.2,30.43,NE,37,1.0,3.0,77,0.00,,---,0.00,VWS V14.01,2013-01-11 15:03:00,
2013-01-11 10:08:00,46.1,39.3,30.43,NW,310,1.0,3.0,77,0.00,,---,0.00,VWS V14.01,2013-01-11 15:08:00,
2013-01-11 10:13:00,46.4,39.3,30.42,NNE,16,1.0,4.0,76,0.00,,---,0.00,VWS V14.01,2013-01-11 15:13:00,
2013-01-11 10:18:00,46.5,39.4,30.41,ENE,71,5.0,6.0,76,0.00,,---,0.00,VWS V14.01,2013-01-11 15:18:00,
2013-01-11 10:23:00,46.7,39.5,30.41,NE,39,4.0,8.0,76,0.00,,---,0.00,VWS V14.01,2013-01-11 15:23:00,
2013-01-11 10:28:00,46.4,39.3,30.41,ENE,63,2.0,8.0,76,0.00,,---,0.00,VWS V14.01,2013-01-11 15:28:00,
2013-01-11 10:30:00,46.4,39.3,30.40,NE,45,2.0,8.0,76,0.00,,---,0.00,VWS V14.01,2013-01-11 15:30:00,
2013-01-11 10:33:00,46.2,39.4,30.40,NNE,19,6.0,8.0,77,0.00,,---,0.00,VWS V14.01,2013-01-11 15:33:00,
2013-01-11 10:38:00,45.9,39.8,30.39,North,353,5.0,9.0,79,0.00,,---,0.00,VWS V14.01,2013-01-11 15:38:00,
2013-01-11 10:43:00,45.8,40.0,30.39,East,98,5.0,9.0,80,0.00,,---,0.00,VWS V14.01,2013-01-11 15:43:00,
2013-01-11 10:48:00,46.1,40.3,30.39,NE,41,4.0,9.0,80,0.00,,---,0.00,VWS V14.01,2013-01-11 15:48:00,
2013-01-11 10:53:00,45.7,40.2,30.38,NE,42,5.0,9.0,81,0.00,,---,0.00,VWS V14.01,2013-01-11 15:53:00,
2013-01-11 10:59:00,45.6,40.4,30.38,NNE,22,5.0,9.0,82,0.00,,---,0.00,VWS V14.01,2013-01-11 15:59:00,
2013-01-11 11:00:00,45.7,40.5,30.37,NNE,22,5.0,9.0,82,0.00,,---,0.00,VWS V14.01,2013-01-11 16:00:00,
2013-01-11 11:04:00,45.6,40.4,30.37,ENE,64,4.0,8.0,82,0.00,,---,0.00,VWS V14.01,2013-01-11 16:04:00,
2013-01-11 11:09:00,45.4,40.5,30.37,NE,45,3.0,8.0,83,0.00,,---,0.00,VWS V14.01,2013-01-11 16:09:00,
2013-01-11 11:14:00,45.2,40.7,30.36,NE,34,5.0,8.0,84,0.00,,---,0.00,VWS V14.01,2013-01-11 16:14:00,
2013-01-11 11:19:00,44.9,40.7,30.37,ENE,63,4.0,8.0,85,0.00,,---,0.00,VWS V14.01,2013-01-11 16:19:00,
2013-01-11 11:24:00,44.8,40.9,30.36,NE,41,3.0,8.0,86,0.00,,---,0.00,VWS V14.01,2013-01-11 16:24:00,
2013-01-11 11:29:00,44.9,41.0,30.35,ENE,71,2.0,8.0,86,0.00,,---,0.00,VWS V14.01,2013-01-11 16:29:00,
2013-01-11 11:30:00,44.9,41.0,30.35,ENE,68,3.0,9.0,86,0.00,,---,0.00,VWS V14.01,2013-01-11 16:30:00,
2013-01-11 11:34:00,45.0,41.1,30.35,East,82,5.0,6.0,86,0.00,,---,0.00,VWS V14.01,2013-01-11 16:34:00,
2013-01-11 11:39:00,45.2,41.3,30.34,East,90,3.0,6.0,86,0.00,,---,0.00,VWS V14.01,2013-01-11 16:39:00,
2013-01-11 11:43:00,45.1,41.2,30.34,NE,56,5.0,7.0,86,0.00,,---,0.00,VWS V14.01,2013-01-11 16:43:00,
2013-01-11 11:48:00,45.1,41.5,30.34,East,94,3.0,7.0,87,0.00,,---,0.00,VWS V14.01,2013-01-11 16:48:00,
2013-01-11 11:53:00,45.3,41.4,30.34,NNW,338,1.0,7.0,86,0.00,,---,0.00,VWS V14.01,2013-01-11 16:53:00,
2013-01-11 11:58:00,45.5,41.6,30.34,ENE,69,2.0,7.0,86,0.00,,---,0.00,VWS V14.01,2013-01-11 16:58:00,
2013-01-11 12:00:00,45.5,41.6,30.35,ENE,68,3.0,7.0,86,0.00,,---,0.00,VWS V14.01,2013-01-11 17:00:00,
2013-01-11 12:03:00,45.6,41.7,30.34,ENE,63,1.0,4.0,86,0.00,,---,0.00,VWS V14.01,2013-01-11 17:03:00,
2013-01-11 12:08:00,45.6,41.7,30.34,NE,56,3.0,4.0,86,0.00,,---,0.00,VWS V14.01,2013-01-11 17:08:00,
2013-01-11 12:13:00,45.3,41.7,30.33,NE,37,2.0,5.0,87,0.00,,---,0.00,VWS V14.01,2013-01-11 17:13:00,
2013-01-11 12:18:00,45.3,41.7,30.33,ENE,75,4.0,5.0,87,0.00,,---,0.00,VWS V14.01,2013-01-11 17:18:00,
2013-01-11 12:23:00,45.3,41.7,30.32,NE,51,4.0,5.0,87,0.00,,---,0.00,VWS V14.01,2013-01-11 17:23:00,
2013-01-11 12:28:00,45.0,41.7,30.32,ENE,66,3.0,5.0,88,0.00,,---,0.00,VWS V14.01,2013-01-11 17:28:00,
2013-01-11 12:30:00,45.0,41.7,30.32,ENE,68,3.0,5.0,88,0.00,,---,0.00,VWS V14.01,2013-01-11 17:30:00,
2013-01-11 12:33:00,45.1,41.8,30.32,NE,53,3.0,4.0,88,0.00,,---,0.00,VWS V14.01,2013-01-11 17:33:00,
2013-01-11 12:38:00,45.0,41.7,30.31,NE,49,4.0,5.0,88,0.00,,---,0.00,VWS V14.01,2013-01-11 17:38:00,
2013-01-11 12:43:00,44.7,41.7,30.31,NE,53,4.0,5.0,89,0.00,,---,0.00,VWS V14.01,2013-01-11 17:43:00,
2013-01-11 12:49:00,44.7,42.0,30.31,NE,50,3.0,5.0,90,0.00,,---,0.00,VWS V14.01,2013-01-11 17:49:00,
2013-01-11 12:53:00,44.7,42.0,30.31,NE,49,2.0,5.0,90,0.00,,---,0.00,VWS V14.01,2013-01-11 17:53:00,
2013-01-11 12:58:00,44.7,42.0,30.31,East,94,3.0,5.0,90,0.00,,---,0.00,VWS V14.01,2013-01-11 17:58:00,
2013-01-11 13:00:00,44.8,42.0,30.31,NE,45,3.0,5.0,90,0.00,,---,0.00,VWS V14.01,2013-01-11 18:00:00,
2013-01-11 13:03:00,44.8,42.0,30.30,ENE,57,4.0,4.0,90,0.00,,---,0.00,VWS V14.01,2013-01-11 18:03:00,
2013-01-11 13:09:00,44.8,42.0,30.30,NE,39,2.0,4.0,90,0.00,,---,0.00,VWS V14.01,2013-01-11 18:09:00,
2013-01-11 13:14:00,44.9,42.4,30.30,NE,53,2.0,4.0,91,0.00,,---,0.00,VWS V14.01,2013-01-11 18:14:00,
2013-01-11 13:19:00,44.9,42.4,30.30,NNE,23,0.0,4.0,91,0.00,,---,0.00,VWS V14.01,2013-01-11 18:19:00,
2013-01-11 13:24:00,44.8,42.3,30.28,ENE,58,5.0,7.0,91,0.00,,---,0.00,VWS V14.01,2013-01-11 18:24:00,
2013-01-11 13:29:00,44.7,42.5,30.30,SW,217,2.0,7.0,92,0.00,,---,0.00,VWS V14.01,2013-01-11 18:29:00,
2013-01-11 13:30:00,44.6,42.4,30.30,NE,45,2.0,7.0,92,0.00,,---,0.00,VWS V14.01,2013-01-11 18:30:00,
2013-01-11 13:34:00,44.7,42.5,30.30,ENE,63,2.0,3.0,92,0.00,,---,0.00,VWS V14.01,2013-01-11 18:34:00,
2013-01-11 13:39:00,44.9,42.7,30.30,East,88,0.0,3.0,92,0.00,,---,0.00,VWS V14.01,2013-01-11 18:39:00,
2013-01-11 13:44:00,45.0,42.8,30.30,ENE,57,2.0,3.0,92,0.00,,---,0.00,VWS V14.01,2013-01-11 18:44:00,
2013-01-11 13:49:00,45.0,42.5,30.30,ENE,60,1.0,3.0,91,0.00,,---,0.00,VWS V14.01,2013-01-11 18:49:00,
2013-01-11 13:54:00,45.0,42.8,30.30,ENE,63,1.0,3.0,92,0.01,,---,0.01,VWS V14.01,2013-01-11 18:54:00,
2013-01-11 13:59:00,45.1,42.9,30.29,ENE,67,2.0,3.0,92,0.01,,---,0.01,VWS V14.01,2013-01-11 18:59:00,
2013-01-11 14:00:00,45.1,42.9,30.28,ENE,68,1.0,3.0,92,0.00,,---,0.01,VWS V14.01,2013-01-11 19:00:00,
2013-01-11 14:04:00,44.9,42.7,30.28,NE,53,2.0,4.0,92,0.01,,---,0.01,VWS V14.01,2013-01-11 19:04:00,
2013-01-11 14:09:00,44.8,42.6,30.28,NE,40,1.0,4.0,92,0.01,,---,0.01,VWS V14.01,2013-01-11 19:09:00,
2013-01-11 14:14:00,44.9,43.0,30.28,East,91,1.0,4.0,93,0.01,,---,0.01,VWS V14.01,2013-01-11 19:14:00,
2013-01-11 14:19:00,45.1,42.9,30.28,ENE,58,2.0,4.0,92,0.01,,---,0.01,VWS V14.01,2013-01-11 19:19:00,
2013-01-11 14:24:00,44.8,42.6,30.28,NE,53,4.0,5.0,92,0.01,,---,0.01,VWS V14.01,2013-01-11 19:24:00,
2013-01-11 14:29:00,44.7,42.8,30.28,East,90,4.0,5.0,93,0.01,,---,0.01,VWS V14.01,2013-01-11 19:29:00,
2013-01-11 14:30:00,44.7,42.8,30.28,NE,45,2.0,5.0,93,0.00,,---,0.01,VWS V14.01,2013-01-11 19:30:00,
2013-01-11 14:34:00,44.9,43.0,30.27,NE,39,3.0,4.0,93,0.01,,---,0.01,VWS V14.01,2013-01-11 19:34:00,
2013-01-11 14:39:00,45.3,43.4,30.27,SE,124,0.0,4.0,93,0.01,,---,0.01,VWS V14.01,2013-01-11 19:39:00,
2013-01-11 14:44:00,45.4,43.2,30.26,North,11,4.0,5.0,92,0.02,,---,0.02,VWS V14.01,2013-01-11 19:44:00,
2013-01-11 14:49:00,45.0,42.8,30.26,NE,35,4.0,6.0,92,0.02,,---,0.02,VWS V14.01,2013-01-11 19:49:00,
2013-01-11 14:54:00,45.0,43.4,30.26,NNE,29,5.0,7.0,94,0.02,,---,0.02,VWS V14.01,2013-01-11 19:54:00,
2013-01-11 14:59:00,45.6,43.7,30.26,South,188,2.0,7.0,93,0.02,,---,0.02,VWS V14.01,2013-01-11 19:59:00,
2013-01-11 15:00:00,45.7,43.8,30.26,NE,45,3.0,8.0,93,0.00,,---,0.02,VWS V14.01,2013-01-11 20:00:00,
2013-01-11 15:04:00,45.7,43.5,30.25,ENE,60,4.0,6.0,92,0.01,,---,0.02,VWS V14.01,2013-01-11 20:04:00,
2013-01-11 15:09:00,45.7,43.8,30.25,ENE,75,2.0,6.0,93,0.01,,---,0.02,VWS V14.01,2013-01-11 20:09:00,
2013-01-11 15:14:00,45.7,43.8,30.25,SW,216,4.0,6.0,93,0.01,,---,0.02,VWS V14.01,2013-01-11 20:14:00,
2013-01-11 15:18:00,45.5,43.3,30.25,SE,128,2.0,6.0,92,0.01,,---,0.02,VWS V14.01,2013-01-11 20:18:00,
2013-01-11 15:24:00,45.2,43.3,30.24,NNE,13,3.0,6.0,93,0.01,,---,0.02,VWS V14.01,2013-01-11 20:24:00,
2013-01-11 15:29:00,45.2,43.6,30.24,ENE,72,5.0,7.0,94,0.01,,---,0.02,VWS V14.01,2013-01-11 20:29:00,
2013-01-11 15:30:00,45.3,43.7,30.24,East,90,3.0,7.0,94,0.00,,---,0.02,VWS V14.01,2013-01-11 20:30:00,
2013-01-11 15:34:00,45.3,43.7,30.24,NE,47,3.0,6.0,94,0.01,,---,0.02,VWS V14.01,2013-01-11 20:34:00,
2013-01-11 15:39:00,45.4,43.8,30.24,East,79,2.0,6.0,94,0.01,,---,0.02,VWS V14.01,2013-01-11 20:39:00,
2013-01-11 15:44:00,45.5,43.9,30.23,SE,143,4.0,6.0,94,0.01,,---,0.02,VWS V14.01,2013-01-11 20:44:00,
2013-01-11 15:49:00,45.5,43.9,30.22,North,11,4.0,6.0,94,0.01,,---,0.02,VWS V14.01,2013-01-11 20:49:00,
2013-01-11 15:54:00,45.5,43.9,30.22,ESE,106,3.0,6.0,94,0.01,,---,0.02,VWS V14.01,2013-01-11 20:54:00,
2013-01-11 15:58:00,45.4,43.8,30.22,NNW,345,4.0,7.0,94,0.01,,---,0.02,VWS V14.01,2013-01-11 20:58:00,
2013-01-11 16:00:00,45.4,43.8,30.22,ENE,68,3.0,7.0,94,0.00,,---,0.02,VWS V14.01,2013-01-11 21:00:00,
2013-01-11 16:03:00,45.4,43.8,30.22,NW,310,3.0,6.0,94,0.00,,---,0.02,VWS V14.01,2013-01-11 21:03:00,
2013-01-11 16:08:00,45.5,43.9,30.21,NNE,30,5.0,6.0,94,0.00,,---,0.02,VWS V14.01,2013-01-11 21:08:00,
2013-01-11 16:13:00,45.5,43.9,30.21,NE,43,3.0,7.0,94,0.00,,---,0.02,VWS V14.01,2013-01-11 21:13:00,
2013-01-11 16:18:00,45.5,43.9,30.21,ENE,61,3.0,7.0,94,0.00,,---,0.02,VWS V14.01,2013-01-11 21:18:00,
2013-01-11 16:23:00,45.5,43.9,30.22,SSW,206,3.0,7.0,94,0.00,,---,0.02,VWS V14.01,2013-01-11 21:23:00,
2013-01-11 16:28:00,45.5,43.9,30.22,SW,216,1.0,7.0,94,0.00,,---,0.02,VWS V14.01,2013-01-11 21:28:00,
2013-01-11 16:30:00,45.6,44.0,30.22,East,90,3.0,8.0,94,0.00,,---,0.02,VWS V14.01,2013-01-11 21:30:00,
2013-01-11 16:33:00,45.6,44.0,30.22,SE,128,1.0,3.0,94,0.00,,---,0.02,VWS V14.01,2013-01-11 21:33:00,
2013-01-11 16:39:00,45.6,44.0,30.22,South,179,1.0,3.0,94,0.00,,---,0.02,VWS V14.01,2013-01-11 21:39:00,
2013-01-11 16:44:00,45.5,43.9,30.21,SSE,159,0.0,4.0,94,0.00,,---,0.02,VWS V14.01,2013-01-11 21:44:00,
2013-01-11 16:49:00,45.5,43.9,30.21,East,80,1.0,4.0,94,0.00,,---,0.02,VWS V14.01,2013-01-11 21:49:00,
2013-01-11 16:54:00,45.4,43.8,30.22,ENE,67,1.0,4.0,94,0.00,,---,0.02,VWS V14.01,2013-01-11 21:54:00,
2013-01-11 16:59:00,45.4,43.8,30.21,NE,51,2.0,4.0,94,0.00,,---,0.02,VWS V14.01,2013-01-11 21:59:00,
2013-01-11 17:00:00,45.3,43.7,30.21,East,90,1.0,4.0,94,0.00,,---,0.02,VWS V14.01,2013-01-11 22:00:00,
2013-01-11 17:04:00,45.3,43.7,30.21,ESE,111,2.0,3.0,94,0.00,,---,0.02,VWS V14.01,2013-01-11 22:04:00,
2013-01-11 17:09:00,45.3,43.7,30.21,NNE,17,3.0,4.0,94,0.00,,---,0.02,VWS V14.01,2013-01-11 22:09:00,
2013-01-11 17:14:00,45.3,43.7,30.20,ENE,75,3.0,4.0,94,0.00,,---,0.02,VWS V14.01,2013-01-11 22:14:00,
2013-01-11 17:19:00,45.3,43.7,30.20,NE,56,3.0,4.0,94,0.00,,---,0.02,VWS V14.01,2013-01-11 22:19:00,
2013-01-11 17:24:00,45.3,43.7,30.20,East,82,3.0,5.0,94,0.01,,---,0.03,VWS V14.01,2013-01-11 22:24:00,
2013-01-11 17:29:00,45.2,43.6,30.19,NE,34,2.0,5.0,94,0.02,,---,0.04,VWS V14.01,2013-01-11 22:29:00,
2013-01-11 17:30:00,45.2,43.6,30.19,NE,45,2.0,5.0,94,0.00,,---,0.04,VWS V14.01,2013-01-11 22:30:00,
2013-01-11 17:34:00,45.2,43.9,30.19,NE,37,3.0,6.0,95,0.02,,---,0.04,VWS V14.01,2013-01-11 22:34:00,
2013-01-11 17:39:00,45.2,43.9,30.19,NE,54,1.0,6.0,95,0.02,,---,0.04,VWS V14.01,2013-01-11 22:39:00,
2013-01-11 17:44:00,45.3,44.0,30.18,NNE,32,5.0,6.0,95,0.02,,---,0.04,VWS V14.01,2013-01-11 22:44:00,
2013-01-11 17:49:00,45.3,44.0,30.18,ENE,59,6.0,7.0,95,0.02,,---,0.04,VWS V14.01,2013-01-11 22:49:00,
2013-01-11 17:54:00,45.3,44.0,30.18,NE,44,5.0,7.0,95,0.02,,---,0.04,VWS V14.01,2013-01-11 22:54:00,
2013-01-11 17:59:00,45.3,44.0,30.19,ENE,57,4.0,7.0,95,0.02,,---,0.04,VWS V14.01,2013-01-11 22:59:00,
2013-01-11 18:00:00,45.3,44.0,30.19,NE,45,4.0,7.0,95,0.00,,---,0.04,VWS V14.01,2013-01-11 23:00:00,
2013-01-11 18:04:00,45.3,44.0,30.18,NE,54,4.0,5.0,95,0.02,,---,0.04,VWS V14.01,2013-01-11 23:04:00,
2013-01-11 18:09:00,45.2,43.9,30.18,NE,52,3.0,5.0,95,0.02,,---,0.04,VWS V14.01,2013-01-11 23:09:00,
2013-01-11 18:14:00,45.2,43.9,30.18,ENE,75,3.0,5.0,95,0.03,,---,0.05,VWS V14.01,2013-01-11 23:14:00,
2013-01-11 18:19:00,45.3,44.2,30.18,NE,56,7.0,7.0,96,0.03,,---,0.05,VWS V14.01,2013-01-11 23:19:00,
2013-01-11 18:24:00,45.3,44.2,30.17,NE,51,8.0,8.0,96,0.04,,---,0.06,VWS V14.01,2013-01-11 23:24:00,
2013-01-11 18:29:00,45.2,43.9,30.17,NE,51,7.0,9.0,95,0.04,,---,0.06,VWS V14.01,2013-01-11 23:29:00,
2013-01-11 18:30:00,45.2,43.9,30.17,NE,45,5.0,9.0,95,0.00,,---,0.06,VWS V14.01,2013-01-11 23:30:00,
2013-01-11 18:34:00,45.2,44.1,30.16,ENE,62,6.0,8.0,96,0.02,,---,0.06,VWS V14.01,2013-01-11 23:34:00,
2013-01-11 18:39:00,45.2,44.1,30.16,NNE,31,5.0,8.0,96,0.03,,---,0.07,VWS V14.01,2013-01-11 23:39:00,
2013-01-11 18:45:00,45.3,44.2,30.15,NNE,22,5.0,8.0,96,0.03,,---,0.07,VWS V14.01,2013-01-11 23:45:00,
2013-01-11 18:52:00,45.4,44.3,30.15,WNW,303,3.0,8.0,96,0.03,,---,0.07,VWS V14.01,2013-01-11 23:52:00,
2013-01-11 18:57:00,45.5,44.4,30.15,ESE,117,4.0,8.0,96,0.04,,---,0.08,VWS V14.01,2013-01-11 23:57:00,
2013-01-11 19:00:00,45.5,44.4,30.14,NE,45,5.0,8.0,96,0.00,,---,0.08,VWS V14.01,2013-01-12 00:00:00,
2013-01-11 19:02:00,45.5,44.4,30.14,North,353,4.0,6.0,96,0.04,,---,0.08,VWS V14.01,2013-01-12 00:02:00,
2013-01-11 19:07:00,45.5,44.4,30.14,NNE,30,3.0,7.0,96,0.04,,---,0.08,VWS V14.01,2013-01-12 00:07:00,
2013-01-11 19:13:00,45.7,44.6,30.14,NNE,12,3.0,7.0,96,0.04,,---,0.08,VWS V14.01,2013-01-12 00:13:00,
2013-01-11 19:18:00,45.9,44.8,30.13,ESE,121,4.0,7.0,96,0.04,,---,0.08,VWS V14.01,2013-01-12 00:18:00,
2013-01-11 19:30:00,46.3,45.2,30.12,ESE,113,4.0,8.0,96,0.06,,---,0.10,VWS V14.01,2013-01-12 00:30:00,
2013-01-11 19:40:00,46.8,46.0,30.11,SE,136,8.0,13.0,97,0.06,,---,0.12,VWS V14.01,2013-01-12 00:40:00,
2013-01-11 19:45:00,46.8,45.7,30.11,East,93,11.0,14.0,96,0.07,,---,0.13,VWS V14.01,2013-01-12 00:45:00,
2013-01-11 19:51:00,47.1,46.3,30.10,ESE,108,12.0,18.0,97,0.07,,---,0.13,VWS V14.01,2013-01-12 00:51:00,
2013-01-11 19:56:00,47.1,46.3,30.10,SE,124,15.0,18.0,97,0.08,,---,0.14,VWS V14.01,2013-01-12 00:56:00,
2013-01-11 20:00:00,47.3,46.5,30.10,SE,135,10.0,19.0,97,0.00,,---,0.14,VWS V14.01,2013-01-12 01:00:00,
2013-01-11 20:01:00,47.3,46.5,30.10,SE,129,14.0,17.0,97,0.06,,---,0.14,VWS V14.01,2013-01-12 01:01:00,
2013-01-11 20:06:00,47.3,46.2,30.09,SE,134,11.0,17.0,96,0.06,,---,0.14,VWS V14.01,2013-01-12 01:06:00,
2013-01-11 20:11:00,47.3,46.5,30.09,ESE,120,13.0,17.0,97,0.07,,---,0.15,VWS V14.01,2013-01-12 01:11:00,
2013-01-11 20:16:00,47.4,46.6,30.09,SE,129,12.0,17.0,97,0.08,,---,0.16,VWS V14.01,2013-01-12 01:16:00,
2013-01-11 20:21:00,47.6,46.8,30.08,ESE,105,15.0,19.0,97,0.08,,---,0.16,VWS V14.01,2013-01-12 01:21:00,
2013-01-11 20:26:00,47.7,46.9,30.08,South,174,10.0,19.0,97,0.08,,---,0.16,VWS V14.01,2013-01-12 01:26:00,
2013-01-11 20:30:00,47.6,46.8,30.08,SE,135,13.0,20.0,97,0.00,,---,0.17,VWS V14.01,2013-01-12 01:30:00,
2013-01-11 20:31:00,47.7,46.9,30.08,SSE,150,14.0,17.0,97,0.07,,---,0.17,VWS V14.01,2013-01-12 01:31:00,
2013-01-11 20:36:00,47.9,47.1,30.07,South,186,12.0,18.0,97,0.08,,---,0.18,VWS V14.01,2013-01-12 01:36:00,
2013-01-11 20:41:00,47.8,47.0,30.07,ESE,120,12.0,19.0,97,0.08,,---,0.18,VWS V14.01,2013-01-12 01:41:00,
2013-01-11 20:46:00,47.7,46.9,30.07,SE,146,10.0,19.0,97,0.08,,---,0.18,VWS V14.01,2013-01-12 01:46:00,
2013-01-11 20:51:00,47.8,47.0,30.06,SE,129,11.0,19.0,97,0.08,,---,0.18,VWS V14.01,2013-01-12 01:51:00,
2013-01-11 20:56:00,48.0,47.2,30.06,East,94,14.0,19.0,97,0.09,,---,0.19,VWS V14.01,2013-01-12 01:56:00,
2013-01-11 21:00:00,48.0,47.2,30.06,SE,135,12.0,19.0,97,0.00,,---,0.19,VWS V14.01,2013-01-12 02:00:00,
2013-01-11 21:01:00,48.0,47.2,30.06,South,169,10.0,17.0,97,0.05,,---,0.19,VWS V14.01,2013-01-12 02:01:00,
2013-01-11 21:06:00,48.0,47.2,30.05,SSE,162,11.0,17.0,97,0.05,,---,0.19,VWS V14.01,2013-01-12 02:06:00,
2013-01-11 21:12:00,48.0,47.2,30.05,SE,124,14.0,17.0,97,0.05,,---,0.19,VWS V14.01,2013-01-12 02:12:00,
2013-01-11 21:17:00,47.9,47.1,30.04,ESE,110,14.0,17.0,97,0.05,,---,0.19,VWS V14.01,2013-01-12 02:17:00,
2013-01-11 21:22:00,47.9,47.1,30.04,ESE,118,15.0,19.0,97,0.05,,---,0.19,VWS V14.01,2013-01-12 02:22:00,
2013-01-11 21:26:00,48.0,47.2,30.05,SSW,195,8.0,21.0,97,0.05,,---,0.19,VWS V14.01,2013-01-12 02:26:00,
2013-01-11 21:30:00,48.2,47.4,30.05,SE,135,13.0,21.0,97,0.00,,---,0.19,VWS V14.01,2013-01-12 02:30:00,
2013-01-11 21:31:00,48.2,47.4,30.05,SSW,196,7.0,15.0,97,0.02,,---,0.19,VWS V14.01,2013-01-12 02:31:00,
2013-01-11 21:36:00,48.4,47.6,30.06,SW,233,7.0,15.0,97,0.02,,---,0.19,VWS V14.01,2013-01-12 02:36:00,
2013-01-11 21:42:00,48.7,47.9,30.06,SSE,151,3.0,15.0,97,0.03,,---,0.20,VWS V14.01,2013-01-12 02:42:00,
2013-01-11 21:47:00,48.6,47.8,30.07,ESE,114,5.0,15.0,97,0.06,,---,0.23,VWS V14.01,2013-01-12 02:47:00,
2013-01-11 21:52:00,49.1,48.6,30.09,WSW,256,10.0,15.0,98,0.09,,---,0.26,VWS V14.01,2013-01-12 02:52:00,
2013-01-11 21:57:00,50.2,49.7,30.09,SE,136,8.0,19.0,98,0.13,,---,0.30,VWS V14.01,2013-01-12 02:57:00,
2013-01-11 22:00:00,50.4,49.9,30.09,West,270,8.0,19.0,98,0.00,,---,0.30,VWS V14.01,2013-01-12 03:00:00,
2013-01-11 22:02:00,50.5,50.0,30.09,WSW,257,14.0,14.0,98,0.12,,---,0.31,VWS V14.01,2013-01-12 03:02:00,
2013-01-11 22:07:00,51.3,50.8,30.09,SSW,197,7.0,14.0,98,0.13,,---,0.32,VWS V14.01,2013-01-12 03:07:00,
2013-01-11 22:12:00,51.7,50.9,30.09,West,260,4.0,14.0,97,0.14,,---,0.33,VWS V14.01,2013-01-12 03:12:00,
2013-01-11 22:17:00,51.7,50.6,30.09,SW,221,3.0,14.0,96,0.14,,---,0.33,VWS V14.01,2013-01-12 03:17:00,
2013-01-11 22:22:00,51.7,50.6,30.09,SW,228,4.0,14.0,96,0.15,,---,0.34,VWS V14.01,2013-01-12 03:22:00,
2013-01-11 22:27:00,51.6,50.5,30.08,WSW,257,2.0,14.0,96,0.15,,---,0.34,VWS V14.01,2013-01-12 03:27:00,
2013-01-11 22:30:00,51.5,50.7,30.08,SW,225,6.0,14.0,97,0.00,,---,0.34,VWS V14.01,2013-01-12 03:30:00,
2013-01-11 22:32:00,51.5,50.7,30.08,WSW,249,3.0,3.0,97,0.15,,---,0.34,VWS V14.01,2013-01-12 03:32:00,
2013-01-11 22:37:00,51.6,50.8,30.08,SSW,198,0.0,3.0,97,0.15,,---,0.34,VWS V14.01,2013-01-12 03:37:00,
2013-01-11 22:42:00,51.6,50.8,30.07,South,179,1.0,4.0,97,0.15,,---,0.34,VWS V14.01,2013-01-12 03:42:00,
2013-01-11 22:47:00,51.2,50.4,30.07,East,96,2.0,4.0,97,0.16,,---,0.35,VWS V14.01,2013-01-12 03:47:00,
2013-01-11 22:52:00,51.3,50.5,30.07,SE,135,1.0,4.0,97,0.16,,---,0.35,VWS V14.01,2013-01-12 03:52:00,
2013-01-11 22:57:00,51.3,50.5,30.06,SSW,205,0.0,4.0,97,0.16,,---,0.35,VWS V14.01,2013-01-12 03:57:00,
2013-01-11 23:00:00,51.2,50.4,30.06,SSW,202,1.0,4.0,97,0.00,,---,0.35,VWS V14.01,2013-01-12 04:00:00,
2013-01-11 23:02:00,51.2,50.4,30.06,SW,224,0.0,3.0,97,0.05,,---,0.35,VWS V14.01,2013-01-12 04:02:00,
2013-01-11 23:07:00,51.3,50.5,30.07,WSW,250,1.0,3.0,97,0.05,,---,0.35,VWS V14.01,2013-01-12 04:07:00,
2013-01-11 23:12:00,51.4,50.6,30.06,WNW,282,1.0,3.0,97,0.05,,---,0.35,VWS V14.01,2013-01-12 04:12:00,
2013-01-11 23:17:00,51.4,50.6,30.06,West,262,0.0,3.0,97,0.05,,---,0.35,VWS V14.01,2013-01-12 04:17:00,
2013-01-11 23:22:00,51.2,50.4,30.06,West,278,2.0,3.0,97,0.05,,---,0.35,VWS V14.01,2013-01-12 04:22:00,
2013-01-11 23:27:00,51.1,50.3,30.06,West,265,2.0,3.0,97,0.05,,---,0.35,VWS V14.01,2013-01-12 04:27:00,
2013-01-11 23:30:00,51.1,50.3,30.06,West,270,1.0,3.0,97,0.00,,---,0.35,VWS V14.01,2013-01-12 04:30:00,
2013-01-11 23:32:00,51.0,50.2,30.06,West,276,3.0,3.0,97,0.01,,---,0.35,VWS V14.01,2013-01-12 04:32:00,
2013-01-11 23:37:00,50.8,50.0,30.06,WSW,255,1.0,3.0,97,0.01,,---,0.35,VWS V14.01,2013-01-12 04:37:00,
2013-01-11 23:42:00,50.8,50.0,30.06,WSW,250,1.0,3.0,97,0.01,,---,0.35,VWS V14.01,2013-01-12 04:42:00,
2013-01-11 23:47:00,50.8,50.0,30.06,WSW,257,2.0,3.0,97,0.01,,---,0.35,VWS V14.01,2013-01-12 04:47:00,
2013-01-11 23:52:00,50.8,50.0,30.05,West,269,2.0,3.0,97,0.01,,---,0.35,VWS V14.01,2013-01-12 04:52:00,
2013-01-11 23:57:00,50.8,50.0,30.05,West,267,2.0,3.0,97,0.01,,---,0.35,VWS V14.01,2013-01-12 04:57:00,